User: anonymous   Login
Location: Unspecified
(0.0000°N, 0.0000°E)
Time: 07:43:01
(UTC+00:00)
Language:

STARLINK-5652 - Orbit

View from above orbital plane
View from above orbital plane
View from above satellite
View from above satellite

Ground track
Ground track

The orbit is defined by the following mean orbital elements,

1 55334U          26145.59571348 +.00000000 +00000-0 +19318-4 0 00009
2 55334  43.0017 229.1197 0001197 276.1975  83.8741 15.27574026    03
Epoch (UTC): 25 May 2026 14:17:49
Eccentricity: 0.0001197
inclination: 43.0017°
perigee height: 482 km
apogee height: 484 km
right ascension of ascending node: 229.1197°
argument of perigee: 276.1975°
revolutions per day: 15.27574026
mean anomaly at epoch: 83.8741°

The dashed part of the orbit path shows where the satellite is in the earth's shadow,  

DLR